| time (UTC) | temp C | wind direction | speed KPH | gust KPH | rain 1hr cm | rain 24hr cm | rain mn cm | humidity % | barometer mb |
| 20260504222516 | 27 | 210 | 1.6 | 6.4 | 0.00 | 0.36 | 0.05 | 81 | 1014.7 |
| 20260504221527 | 26 | 264 | 1.6 | 6.4 | 0.00 | 0.36 | 0.05 | 82 | 1014.4 |
| 20260504220518 | 26 | 267 | 1.6 | 3.2 | 0.00 | 0.36 | 0.05 | 83 | 1014.4 |
| 20260504215529 | 27 | 303 | 1.6 | 4.8 | 0.00 | 0.38 | 0.05 | 81 | 1014.3 |
| 20260504214518 | 26 | 252 | 0.0 | 3.2 | 0.00 | 0.38 | 0.05 | 83 | 1014.4 |
| 20260504213542 | 27 | 263 | 1.6 | 9.7 | 0.00 | 0.38 | 0.05 | 82 | 1014.5 |
| 20260504212527 | 28 | 285 | 3.2 | 6.4 | 0.00 | 0.38 | 0.05 | 79 | 1014.5 |
| 20260504211531 | 27 | 254 | 1.6 | 4.8 | 0.00 | 0.38 | 0.05 | 80 | 1014.6 |
| 20260504210519 | 28 | 276 | 1.6 | 3.2 | 0.00 | 0.38 | 0.05 | 79 | 1014.6 |
| 20260504205526 | 28 | 248 | 1.6 | 6.4 | 0.00 | 0.38 | 0.05 | 77 | 1014.6 |
| 20260504204534 | 29 | 283 | 3.2 | 6.4 | 0.00 | 0.38 | 0.05 | 77 | 1014.9 |
| 20260504203518 | 29 | 279 | 1.6 | 9.7 | 0.00 | 0.38 | 0.05 | 76 | 1014.8 |
| 20260504202524 | 28 | 279 | 1.6 | 4.8 | 0.00 | 0.38 | 0.05 | 76 | 1014.9 |
| 20260504201534 | 28 | 264 | 3.2 | 9.7 | 0.00 | 0.38 | 0.05 | 77 | 1014.9 |
| 20260504200543 | 28 | 295 | 3.2 | 6.4 | 0.00 | 0.38 | 0.05 | 78 | 1014.9 |
| 20260504195520 | 30 | 285 | 1.6 | 8.0 | 0.00 | 0.38 | 0.05 | 75 | 1015.0 |
| 20260504194532 | 30 | 293 | 1.6 | 6.4 | 0.00 | 0.38 | 0.05 | 76 | 1015.2 |
| 20260504193603 | 29 | 277 | 3.2 | 6.4 | 0.00 | 0.38 | 0.05 | 76 | 1015.1 |
| 20260504192532 | 29 | 279 | 1.6 | 9.7 | 0.00 | 0.38 | 0.05 | 78 | 1015.3 |
| 20260504191523 | 28 | 278 | 1.6 | 6.4 | 0.00 | 0.38 | 0.05 | 80 | 1015.5 |
| 20260504190534 | 27 | 282 | 1.6 | 6.4 | 0.00 | 0.38 | 0.05 | 83 | 1015.5 |
| 20260504185545 | 28 | 308 | 3.2 | 8.0 | 0.00 | 0.38 | 0.05 | 81 | 1015.7 |
| 20260504184555 | 29 | 280 | 1.6 | 9.7 | 0.00 | 0.38 | 0.05 | 79 | 1015.8 |
| 20260504183545 | 28 | 290 | 1.6 | 6.4 | 0.00 | 0.38 | 0.05 | 80 | 1015.9 |
| 20260504182533 | 28 | 272 | 1.6 | 4.8 | 0.00 | 0.38 | 0.05 | 82 | 1016.0 |
| 20260504181518 | 27 | 280 | 1.6 | 4.8 | 0.00 | 0.38 | 0.05 | 84 | 1016.1 |
| 20260504180528 | 28 | 307 | 1.6 | 6.4 | 0.00 | 0.38 | 0.05 | 82 | 1016.2 |
| 20260504175535 | 28 | 305 | 1.6 | 4.8 | 0.00 | 0.38 | 0.05 | 79 | 1016.2 |
| 20260504174545 | 29 | 289 | 3.2 | 6.4 | 0.00 | 0.41 | 0.05 | 79 | 1016.1 |
| 20260504173516 | 28 | 279 | 1.6 | 6.4 | 0.00 | 0.41 | 0.05 | 81 | 1016.2 |
| 20260504172527 | 28 | 289 | 1.6 | 4.8 | 0.00 | 0.41 | 0.05 | 80 | 1016.3 |
| 20260504171517 | 28 | 288 | 3.2 | 8.0 | 0.00 | 0.41 | 0.05 | 81 | 1016.4 |
| 20260504170528 | 27 | 250 | 0.0 | 3.2 | 0.00 | 0.41 | 0.05 | 84 | 1016.4 |
| 20260504150539 | 25 | 338 | 1.6 | 3.2 | 0.00 | 0.41 | 0.05 | 91 | 1016.8 |
| 20260504140528 | 23 | 344 | 1.6 | 6.4 | 0.00 | 0.41 | 0.05 | 97 | 1016.6 |
| 20260504130517 | 22 | 353 | 1.6 | 4.8 | 0.00 | 0.41 | 0.05 | 99 | 1016.0 |
| 20260504110516 | 21 | 348 | 0.0 | 3.2 | 0.00 | 0.48 | 0.05 | 99 | 1015.3 |
| 20260504100520 | 21 | 6 | 0.0 | 3.2 | 0.00 | 0.48 | 0.05 | 99 | 1015.0 |
| 20260504081517 | 22 | 155 | 1.6 | 4.8 | 0.03 | 0.48 | 0.05 | 99 | 1014.6 |
| 20260504080532 | 22 | 158 | 0.0 | 3.2 | 0.03 | 0.48 | 0.05 | 99 | 1014.5 |
| 20260504050535 | 22 | 0.0 | 0.0 | 0.00 | 0.43 | 0.00 | 99 | 1016.7 | |
| 20260504045529 | 22 | 0.0 | 0.0 | 0.00 | 0.43 | 0.00 | 99 | 1016.6 | |
| 20260504044524 | 22 | 0.0 | 0.0 | 0.00 | 0.43 | 0.00 | 99 | 1016.7 | |
| 20260504043517 | 22 | 0.0 | 0.0 | 0.00 | 0.43 | 0.00 | 99 | 1016.6 | |
| 20260504042552 | 22 | 128 | 0.0 | 1.6 | 0.00 | 0.43 | 0.00 | 99 | 1016.8 |
| 20260504041527 | 22 | 0.0 | 0.0 | 0.00 | 0.43 | 0.00 | 99 | 1016.5 | |
| 20260504040521 | 22 | 0.0 | 0.0 | 0.00 | 0.43 | 0.00 | 99 | 1016.3 | |
| 20260504035535 | 22 | 0.0 | 0.0 | 0.00 | 0.43 | 0.43 | 99 | 1016.6 | |
| 20260504034630 | 22 | 0.0 | 0.0 | 0.00 | 0.43 | 0.43 | 99 | 1016.5 | |
| 20260504033525 | 22 | 0.0 | 0.0 | 0.00 | 0.43 | 0.43 | 99 | 1016.5 | |
| 20260504032518 | 22 | 0.0 | 0.0 | 0.00 | 0.43 | 0.43 | 99 | 1016.4 | |
| 20260504031533 | 22 | 0.0 | 0.0 | 0.00 | 0.43 | 0.43 | 99 | 1016.5 | |
| 20260504030529 | 22 | 0.0 | 0.0 | 0.00 | 0.43 | 0.43 | 99 | 1016.7 | |
| 20260504025523 | 22 | 0.0 | 0.0 | 0.00 | 0.43 | 0.43 | 99 | 1016.7 | |
| 20260504024537 | 22 | 0.0 | 0.0 | 0.00 | 0.43 | 0.43 | 99 | 1016.9 | |
| 20260504023532 | 22 | 0.0 | 0.0 | 0.00 | 0.43 | 0.43 | 99 | 1016.6 | |
| 20260504022547 | 22 | 0.0 | 0.0 | 0.00 | 0.43 | 0.43 | 99 | 1016.5 | |
| 20260504021521 | 22 | 48 | 0.0 | 3.2 | 0.00 | 0.43 | 0.43 | 99 | 1016.4 |
| 20260504020515 | 22 | 0.0 | 1.6 | 0.00 | 0.43 | 0.43 | 99 | 1016.4 | |
| 20260504015531 | 23 | 14 | 0.0 | 3.2 | 0.00 | 0.43 | 0.43 | 99 | 1016.4 |
| 20260504014606 | 23 | 0.0 | 1.6 | 0.00 | 0.43 | 0.43 | 99 | 1016.5 | |
| 20260504013521 | 23 | 0.0 | 1.6 | 0.00 | 0.43 | 0.43 | 99 | 1016.5 | |
| 20260504012535 | 23 | 0.0 | 1.6 | 0.00 | 0.43 | 0.43 | 99 | 1016.3 | |
| 20260504011610 | 23 | 0.0 | 0.0 | 0.00 | 0.43 | 0.43 | 99 | 1016.3 | |
| 20260504010525 | 23 | 0.0 | 0.0 | 0.00 | 0.43 | 0.43 | 99 | 1016.1 | |
| 20260504005519 | 23 | 0.0 | 1.6 | 0.00 | 0.43 | 0.43 | 99 | 1015.8 | |
| 20260504004534 | 23 | 0.0 | 0.0 | 0.00 | 0.43 | 0.43 | 99 | 1015.9 | |
| 20260504003530 | 23 | 0.0 | 0.0 | 0.00 | 0.43 | 0.43 | 99 | 1015.8 | |
| 20260504002523 | 23 | 0.0 | 0.0 | 0.00 | 0.43 | 0.43 | 99 | 1015.9 | |
| 20260504001515 | 23 | 0.0 | 0.0 | 0.00 | 0.43 | 0.43 | 99 | 1015.9 | |
| 20260504000528 | 23 | 0.0 | 0.0 | 0.00 | 0.43 | 0.43 | 99 | 1015.6 | |
| 20260503235521 | 23 | 0.0 | 0.0 | 0.00 | 0.43 | 0.43 | 99 | 1015.4 | |
| 20260503234553 | 23 | 0.0 | 0.0 | 0.00 | 0.43 | 0.43 | 99 | 1015.3 | |
| 20260503233526 | 23 | 0.0 | 0.0 | 0.13 | 0.43 | 0.43 | 99 | 1015.6 | |
| 20260503232539 | 23 | 0.0 | 0.0 | 0.33 | 0.43 | 0.43 | 99 | 1015.4 | |
| 20260503231532 | 23 | 318 | 0.0 | 1.6 | 0.33 | 0.43 | 0.43 | 99 | 1015.3 |
| 20260503230545 | 24 | 0.0 | 0.0 | 0.33 | 0.43 | 0.43 | 99 | 1015.4 | |
| 20260503225517 | 24 | 0.0 | 0.0 | 0.33 | 0.43 | 0.43 | 99 | 1015.3 | |
| 20260503224531 | 24 | 0.0 | 1.6 | 0.33 | 0.43 | 0.43 | 99 | 1015.4 | |
| 20260503223525 | 25 | 332 | 1.6 | 4.8 | 0.20 | 0.30 | 0.30 | 97 | 1014.8 |